Terminal Aerodrome Forecast
Issued by NWS

Home | Current Version | Previous Version | Graphics & Text | Print | Product List | Glossary On
Versions: 1 2 3 4 5 6 7 8 9 10 11 12 13 14 15 16 17 18 19 20 21 22 23 24 25 26
427
FTUS43 KLOT 071501 AAA
TAFORD
TAF AMD
KORD 071501Z 0715/0818 23014G21KT P6SM SCT100 BKN200
     FM072300 25010KT P6SM BKN080
     FM080700 28011KT P6SM OVC020
      TEMPO 0809/0813 1 1/2SM -SHSN OVC010
     FM081300 30012G19KT P6SM VCSH OVC020 PROB30 0813/0818 1SM
      -SHSN=

USA.gov is the U.S. government's official web portal to all federal, state and local government web resources and services.